N2528E KIGQ-KLBF

Flight info

Callsign N2528E
Flight time N/A
Altitude 8000
Route JOT V8 IOW V8 DSM V6 OVR V8 GRI V6 LBF
Aircraft M20P/L-VGD/C

Departure

Time N/A
Airport Lansing Municipal Airport (KIGQ)

Arrival

Time 2026-04-22 21:02
Airport North Platte Regional Airport Lee Bird Field (KLBF)
Time Latitude Longitude Altitude Speed Heading
2026-04-22 21:02 41.13186 -100.69533 2779 ft 0 kts 94°
2026-04-22 21:04 41.13185 -100.69532 2826 ft 1 kts 100°
2026-04-22 21:04 41.13158 -100.69533 2779 ft 5 kts 187°
2026-04-22 21:04 41.13126 -100.69527 2779 ft 4 kts 163°
2026-04-22 21:05 41.13108 -100.69494 2779 ft 6 kts 89°
2026-04-22 21:05 41.13112 -100.69420 2779 ft 10 kts 73°
2026-04-22 21:05 41.13186 -100.69396 2779 ft 15 kts 360°
2026-04-22 21:05 41.13300 -100.69381 2779 ft 16 kts 64°
2026-04-22 21:06 41.13273 -100.69291 2779 ft 0 kts 177°
2026-04-22 21:06 41.13251 -100.69291 2779 ft 14 kts 178°
2026-04-22 21:07 41.13049 -100.69287 2780 ft 42 kts 180°
2026-04-22 21:07 41.12696 -100.69326 2812 ft 58 kts 177°
2026-04-22 21:07 41.12292 -100.69450 2957 ft 62 kts 184°
2026-04-22 21:07 41.11885 -100.69630 3170 ft 59 kts 187°
2026-04-22 21:08 41.11462 -100.69698 3273 ft 67 kts 172°
2026-04-22 21:08 41.11008 -100.69716 3635 ft 49 kts 178°
2026-04-22 21:08 41.10700 -100.69649 3758 ft 54 kts 187°
2026-04-22 21:08 41.10268 -100.69910 3738 ft 79 kts 192°
2026-04-22 21:09 41.09702 -100.70177 3804 ft 93 kts 195°
2026-04-22 21:09 41.09066 -100.70525 3882 ft 104 kts 195°
2026-04-22 21:09 41.08392 -100.70906 4002 ft 108 kts 196°
2026-04-22 21:09 41.07675 -100.71321 4187 ft 115 kts 199°
2026-04-22 21:10 41.07175 -100.71613 4307 ft 118 kts 199°
2026-04-22 21:10 41.06440 -100.72049 4480 ft 116 kts 197°
2026-04-22 21:10 41.05701 -100.72491 4644 ft 114 kts 197°
2026-04-22 21:10 41.04986 -100.72918 4826 ft 115 kts 198°
2026-04-22 21:11 41.04256 -100.73352 4972 ft 113 kts 197°
2026-04-22 21:11 41.03551 -100.73767 5132 ft 110 kts 197°
2026-04-22 21:11 41.02844 -100.74188 5301 ft 114 kts 197°
2026-04-22 21:11 41.02102 -100.74631 5470 ft 117 kts 197°
2026-04-22 21:12 41.01378 -100.75061 5636 ft 112 kts 197°
2026-04-22 21:12 41.00678 -100.75482 5814 ft 110 kts 196°
2026-04-22 21:12 40.99950 -100.75910 5890 ft 118 kts 197°
2026-04-22 21:12 40.99166 -100.76375 5970 ft 125 kts 198°
2026-04-22 21:13 40.98358 -100.76854 6015 ft 131 kts 198°
2026-04-22 21:13 40.97494 -100.77367 5996 ft 138 kts 198°
2026-04-22 21:13 40.96621 -100.77887 6005 ft 138 kts 199°
2026-04-22 21:13 40.95743 -100.78409 6000 ft 140 kts 199°
2026-04-22 21:14 40.94858 -100.78934 6002 ft 141 kts 199°
2026-04-22 21:14 40.93968 -100.79466 5996 ft 138 kts 199°
2026-04-22 21:14 40.93098 -100.79982 5993 ft 135 kts 199°
2026-04-22 21:14 40.92227 -100.80496 6000 ft 140 kts 199°
2026-04-22 21:15 40.91336 -100.81024 6003 ft 143 kts 199°
2026-04-22 21:15 40.90420 -100.81568 5998 ft 145 kts 199°
2026-04-22 21:15 40.89497 -100.82116 5996 ft 144 kts 199°
2026-04-22 21:15 40.88586 -100.82655 5988 ft 145 kts 199°
2026-04-22 21:16 40.87663 -100.83199 5987 ft 145 kts 198°
2026-04-22 21:16 40.86736 -100.83749 5984 ft 145 kts 198°
2026-04-22 21:16 40.85826 -100.84289 5986 ft 143 kts 199°
2026-04-22 21:16 40.84919 -100.84824 5983 ft 142 kts 199°
2026-04-22 21:17 40.84024 -100.85354 5983 ft 141 kts 198°
2026-04-22 21:17 40.83128 -100.85884 5975 ft 141 kts 198°
2026-04-22 21:17 40.82231 -100.86413 5974 ft 140 kts 199°
2026-04-22 21:17 40.81330 -100.86946 5974 ft 142 kts 199°
2026-04-22 21:18 40.80442 -100.87470 5972 ft 141 kts 199°
2026-04-22 21:18 40.79543 -100.88001 5970 ft 140 kts 198°
2026-04-22 21:18 40.78655 -100.88525 5978 ft 143 kts 198°
2026-04-22 21:18 40.77722 -100.89073 5972 ft 147 kts 199°
2026-04-22 21:19 40.76791 -100.89625 5974 ft 145 kts 199°
2026-04-22 21:19 40.75871 -100.90168 5976 ft 148 kts 199°
2026-04-22 21:19 40.74927 -100.90724 5977 ft 148 kts 200°
2026-04-22 21:19 40.73987 -100.91280 5974 ft 146 kts 199°
2026-04-22 21:20 40.73073 -100.91818 5979 ft 144 kts 199°
2026-04-22 21:20 40.72163 -100.92354 5979 ft 144 kts 199°
2026-04-22 21:20 40.71238 -100.92899 5978 ft 144 kts 200°
2026-04-22 21:20 40.70339 -100.93427 5974 ft 142 kts 199°
2026-04-22 21:21 40.69436 -100.93959 5974 ft 142 kts 199°
2026-04-22 21:21 40.68540 -100.94487 5972 ft 140 kts 200°
2026-04-22 21:21 40.67652 -100.95008 5970 ft 139 kts 199°
2026-04-22 21:21 40.66772 -100.95525 5972 ft 138 kts 199°
2026-04-22 21:22 40.65886 -100.96045 5976 ft 141 kts 199°
2026-04-22 21:22 40.64989 -100.96572 5973 ft 142 kts 199°
2026-04-22 21:22 40.64087 -100.97103 5977 ft 142 kts 199°
2026-04-22 21:22 40.63179 -100.97636 5983 ft 144 kts 199°
2026-04-22 21:23 40.62261 -100.98174 5982 ft 145 kts 199°
2026-04-22 21:23 40.61336 -100.98719 5974 ft 146 kts 200°
2026-04-22 21:23 40.60412 -100.99259 5983 ft 146 kts 200°
2026-04-22 21:23 40.59502 -100.99795 5982 ft 144 kts 200°
2026-04-22 21:24 40.58587 -101.00331 5980 ft 144 kts 199°
2026-04-22 21:24 40.57668 -101.00869 5984 ft 145 kts 199°
2026-04-22 21:24 40.56750 -101.01408 5988 ft 144 kts 199°
2026-04-22 21:24 40.55837 -101.01943 5985 ft 143 kts 199°
2026-04-22 21:25 40.54926 -101.02477 5976 ft 143 kts 199°
2026-04-22 21:25 40.54031 -101.03002 5984 ft 141 kts 199°
2026-04-22 21:25 40.53134 -101.03525 5973 ft 140 kts 199°
2026-04-22 21:25 40.52253 -101.04041 5981 ft 139 kts 198°
2026-04-22 21:26 40.51372 -101.04554 5975 ft 139 kts 198°
2026-04-22 21:26 40.50488 -101.05073 5976 ft 139 kts 198°
2026-04-22 21:26 40.49602 -101.05589 5979 ft 140 kts 199°
2026-04-22 21:26 40.48708 -101.06114 5973 ft 140 kts 199°
2026-04-22 21:27 40.47810 -101.06636 5982 ft 142 kts 199°
2026-04-22 21:27 40.46902 -101.07169 5979 ft 143 kts 199°
2026-04-22 21:27 40.46004 -101.07693 5983 ft 143 kts 200°
2026-04-22 21:27 40.45091 -101.08225 5983 ft 143 kts 199°
2026-04-22 21:28 40.44182 -101.08757 5990 ft 143 kts 198°
2026-04-22 21:28 40.43264 -101.09291 5973 ft 145 kts 199°
2026-04-22 21:28 40.42345 -101.09827 5977 ft 146 kts 200°
2026-04-22 21:28 40.41416 -101.10369 5981 ft 147 kts 200°
2026-04-22 21:29 40.40482 -101.10916 5981 ft 147 kts 200°
2026-04-22 21:29 40.39553 -101.11458 5983 ft 145 kts 199°
2026-04-22 21:29 40.38633 -101.11993 5982 ft 143 kts 199°
2026-04-22 21:29 40.37720 -101.12521 5983 ft 146 kts 199°
2026-04-22 21:30 40.36793 -101.13063 5980 ft 146 kts 198°
2026-04-22 21:30 40.35858 -101.13607 5982 ft 148 kts 199°
2026-04-22 21:30 40.34925 -101.14151 5982 ft 146 kts 199°
2026-04-22 21:30 40.34000 -101.14689 5981 ft 147 kts 199°
2026-04-22 21:31 40.33065 -101.15233 5974 ft 145 kts 200°
2026-04-22 21:31 40.32149 -101.15766 5978 ft 144 kts 199°
2026-04-22 21:31 40.31230 -101.16298 5976 ft 144 kts 200°
2026-04-22 21:31 40.30312 -101.16833 5975 ft 143 kts 199°
2026-04-22 21:32 40.29406 -101.17360 5973 ft 142 kts 199°
2026-04-22 21:32 40.28506 -101.17881 5976 ft 141 kts 199°
2026-04-22 21:32 40.27602 -101.18403 5974 ft 142 kts 201°
2026-04-22 21:32 40.26693 -101.18933 5976 ft 143 kts 199°
2026-04-22 21:33 40.25787 -101.19462 5973 ft 141 kts 199°
2026-04-22 21:33 40.24897 -101.19976 5968 ft 139 kts 200°
2026-04-22 21:33 40.24009 -101.20491 6022 ft 138 kts 199°
2026-04-22 21:33 40.23149 -101.20990 6158 ft 132 kts 200°
2026-04-22 21:34 40.22325 -101.21467 6281 ft 127 kts 200°
2026-04-22 21:34 40.21528 -101.21928 6418 ft 123 kts 200°
2026-04-22 21:34 40.20735 -101.22387 6471 ft 126 kts 200°
2026-04-22 21:34 40.19922 -101.22857 6505 ft 130 kts 201°
2026-04-22 21:35 40.19079 -101.23345 6502 ft 134 kts 201°
2026-04-22 21:35 40.18229 -101.23836 6502 ft 137 kts 201°
2026-04-22 21:35 40.17354 -101.24342 6508 ft 137 kts 200°
2026-04-22 21:35 40.16475 -101.24852 6506 ft 139 kts 200°
2026-04-22 21:36 40.15586 -101.25366 6569 ft 141 kts 201°
2026-04-22 21:36 40.14687 -101.25886 6645 ft 141 kts 200°
2026-04-22 21:36 40.13786 -101.26407 6730 ft 142 kts 200°
2026-04-22 21:36 40.12885 -101.26925 6807 ft 140 kts 201°
2026-04-22 21:37 40.12003 -101.27438 6880 ft 137 kts 200°
2026-04-22 21:37 40.11130 -101.27941 6957 ft 137 kts 199°
2026-04-22 21:37 40.10247 -101.28450 7022 ft 140 kts 200°
2026-04-22 21:37 40.09354 -101.28966 7091 ft 140 kts 201°
2026-04-22 21:38 40.08464 -101.29480 7152 ft 139 kts 200°
2026-04-22 21:38 40.07580 -101.29990 7215 ft 138 kts 201°
2026-04-22 21:38 40.06700 -101.30497 7267 ft 138 kts 200°
2026-04-22 21:38 40.05830 -101.30998 7320 ft 138 kts 200°
2026-04-22 21:39 40.04950 -101.31505 7372 ft 138 kts 200°
2026-04-22 21:39 40.04071 -101.32011 7414 ft 137 kts 200°
2026-04-22 21:39 40.03199 -101.32514 7455 ft 136 kts 201°
2026-04-22 21:39 40.02328 -101.33016 7492 ft 138 kts 201°
2026-04-22 21:40 40.01449 -101.33521 7528 ft 139 kts 200°
2026-04-22 21:40 40.00561 -101.34032 7557 ft 139 kts 201°
2026-04-22 21:40 39.99677 -101.34540 7585 ft 139 kts 201°
2026-04-22 21:40 39.98791 -101.35050 7605 ft 139 kts 201°
2026-04-22 21:41 39.97902 -101.35561 7625 ft 140 kts 201°
2026-04-22 21:41 39.97013 -101.36073 7633 ft 139 kts 200°
2026-04-22 21:41 39.96126 -101.36580 7641 ft 140 kts 201°
2026-04-22 21:41 39.95232 -101.37096 7638 ft 141 kts 201°
2026-04-22 21:42 39.94335 -101.37612 7635 ft 141 kts 200°
2026-04-22 21:42 39.93443 -101.38124 7631 ft 139 kts 201°
2026-04-22 21:42 39.92559 -101.38631 7620 ft 138 kts 201°
2026-04-22 21:42 39.91673 -101.39139 7607 ft 140 kts 200°
2026-04-22 21:43 39.90776 -101.39652 7591 ft 142 kts 200°
2026-04-22 21:43 39.89870 -101.40173 7566 ft 143 kts 200°
2026-04-22 21:43 39.88946 -101.40702 7529 ft 145 kts 201°
2026-04-22 21:43 39.88042 -101.41221 7497 ft 143 kts 201°
2026-04-22 21:44 39.87119 -101.41750 7459 ft 142 kts 200°
2026-04-22 21:44 39.86231 -101.42260 7412 ft 141 kts 201°
2026-04-22 21:44 39.85337 -101.42771 7368 ft 140 kts 201°
2026-04-22 21:44 39.84445 -101.43282 6504 ft 140 kts 200°
2026-04-22 21:45 39.83554 -101.43791 6511 ft 141 kts 200°
2026-04-22 21:45 39.82659 -101.44304 6505 ft 140 kts 200°
2026-04-22 21:45 39.81769 -101.44813 6506 ft 139 kts 199°
2026-04-22 21:45 39.80884 -101.45318 6508 ft 139 kts 199°
2026-04-22 21:46 39.79995 -101.45825 6511 ft 141 kts 200°
2026-04-22 21:46 39.79094 -101.46340 6508 ft 141 kts 200°
2026-04-22 21:46 39.78201 -101.46852 6505 ft 140 kts 199°
2026-04-22 21:46 39.77316 -101.47359 6512 ft 139 kts 199°
2026-04-22 21:47 39.76424 -101.47865 6518 ft 141 kts 200°
2026-04-22 21:47 39.75520 -101.48382 6522 ft 143 kts 200°
2026-04-22 21:47 39.74610 -101.48901 6509 ft 141 kts 199°
2026-04-22 21:47 39.73726 -101.49408 6512 ft 138 kts 200°
2026-04-22 21:48 39.72845 -101.49908 6518 ft 138 kts 200°
2026-04-22 21:48 39.71962 -101.50411 6519 ft 139 kts 200°
2026-04-22 21:48 39.71076 -101.50916 6511 ft 138 kts 199°
2026-04-22 21:48 39.70196 -101.51419 6511 ft 138 kts 199°
2026-04-22 21:49 39.69313 -101.51922 6516 ft 139 kts 200°
2026-04-22 21:49 39.68427 -101.52426 6513 ft 139 kts 200°
2026-04-22 21:49 39.67547 -101.52928 6510 ft 138 kts 199°
2026-04-22 21:49 39.66685 -101.53417 6515 ft 137 kts 200°
2026-04-22 21:50 39.66094 -101.53754 6516 ft 138 kts 200°
2026-04-22 21:50 39.64929 -101.54417 6516 ft 138 kts 200°
2026-04-22 21:50 39.64045 -101.54919 6511 ft 139 kts 200°
2026-04-22 21:50 39.63156 -101.55425 6518 ft 141 kts 200°
2026-04-22 21:51 39.62253 -101.55939 6513 ft 142 kts 200°
2026-04-22 21:51 39.61346 -101.56455 6518 ft 143 kts 199°
2026-04-22 21:51 39.60435 -101.56971 6512 ft 142 kts 201°
2026-04-22 21:52 39.58640 -101.57992 6550 ft 140 kts 199°
2026-04-22 21:52 39.57744 -101.58499 6555 ft 141 kts 200°
2026-04-22 21:52 39.56849 -101.59008 6563 ft 140 kts 201°
2026-04-22 21:52 39.55955 -101.59515 6566 ft 140 kts 200°
2026-04-22 21:53 39.55065 -101.60020 6573 ft 140 kts 199°
2026-04-22 21:53 39.54181 -101.60521 6575 ft 137 kts 200°
2026-04-22 21:53 39.53308 -101.61018 6577 ft 137 kts 200°
2026-04-22 21:53 39.52429 -101.61512 6580 ft 137 kts 200°
2026-04-22 21:54 39.51551 -101.62011 6589 ft 139 kts 199°
2026-04-22 21:54 39.50666 -101.62512 6592 ft 138 kts 200°
2026-04-22 21:54 39.49793 -101.63007 6597 ft 137 kts 200°
2026-04-22 21:54 39.48925 -101.63499 6605 ft 137 kts 199°
2026-04-22 21:55 39.48046 -101.63996 6612 ft 139 kts 199°
2026-04-22 21:55 39.47165 -101.64492 6616 ft 140 kts 199°
2026-04-22 21:55 39.46274 -101.64997 6623 ft 139 kts 200°
2026-04-22 21:55 39.45387 -101.65500 6628 ft 139 kts 199°
2026-04-22 21:56 39.44495 -101.66004 6632 ft 141 kts 199°
2026-04-22 21:56 39.43592 -101.66515 6628 ft 142 kts 200°
2026-04-22 21:56 39.42986 -101.66857 6633 ft 140 kts 200°
2026-04-22 21:56 39.42100 -101.67359 6634 ft 138 kts 200°
2026-04-22 21:57 39.41217 -101.67856 6631 ft 139 kts 200°
2026-04-22 21:57 39.40330 -101.68357 6628 ft 138 kts 200°
2026-04-22 21:57 39.39463 -101.68847 6633 ft 137 kts 200°
2026-04-22 21:57 39.38567 -101.69324 6580 ft 141 kts 194°
2026-04-22 21:58 39.37623 -101.69768 6452 ft 146 kts 198°
2026-04-22 21:58 39.36681 -101.70256 6453 ft 145 kts 198°
2026-04-22 21:58 39.35751 -101.70726 6455 ft 142 kts 197°
2026-04-22 21:58 39.34824 -101.71185 6454 ft 142 kts 197°
2026-04-22 21:59 39.33902 -101.71639 6448 ft 142 kts 198°
2026-04-22 21:59 39.32978 -101.72091 6450 ft 143 kts 198°
2026-04-22 21:59 39.32051 -101.72549 6442 ft 142 kts 198°
2026-04-22 21:59 39.31129 -101.73004 6444 ft 141 kts 199°
2026-04-22 22:00 39.30216 -101.73454 6449 ft 140 kts 198°
2026-04-22 22:00 39.29310 -101.73903 6444 ft 139 kts 197°
2026-04-22 22:00 39.28412 -101.74344 6442 ft 138 kts 197°
2026-04-22 22:00 39.27516 -101.74784 6437 ft 138 kts 197°
2026-04-22 22:01 39.26619 -101.75226 6438 ft 138 kts 198°
2026-04-22 22:01 39.25723 -101.75668 6429 ft 137 kts 197°
2026-04-22 22:01 39.24831 -101.76105 6434 ft 138 kts 197°
2026-04-22 22:01 39.23928 -101.76548 6419 ft 138 kts 198°